Time,TemperatureF,DewpointF,PressureIn,WindDirection,WindDirectionDegrees,WindSpeedMPH,WindSpeedGustMPH,Humidity,HourlyPrecipIn,Conditions,Clouds,dailyrainin,SolarRadiationWatts/m^2,SoftwareType,DateUTC
2013-07-17 00:01:00,75.0,74.0,-100.00,NW,316,3.0,4.0,98,0.00,,,0.00,0.000000,,2013-07-17 04:01:00,
2013-07-17 00:43:00,74.0,73.0,-100.00,NE,50,1.0,3.0,98,0.00,,,-99.99,0.000000,,2013-07-17 04:43:00,
2013-07-17 00:53:00,74.0,73.0,-100.00,NE,50,1.0,3.0,98,0.00,,,-99.99,0.000000,,2013-07-17 04:53:00,
2013-07-17 01:02:00,74.0,73.0,-100.00,NE,50,1.0,3.0,98,0.00,,,-99.99,0.000000,,2013-07-17 05:02:00,
2013-07-17 01:43:00,74.0,73.0,-100.00,NW,317,0.0,4.0,98,0.00,,,-99.99,0.000000,,2013-07-17 05:43:00,
2013-07-17 01:52:00,74.0,73.0,-100.00,NW,317,0.0,4.0,98,0.00,,,-99.99,0.000000,,2013-07-17 05:52:00,
2013-07-17 02:01:00,74.0,73.0,-100.00,NW,317,0.0,4.0,98,0.00,,,-99.99,0.000000,,2013-07-17 06:01:00,
2013-07-17 02:43:00,73.0,72.0,-100.00,NW,316,2.0,4.0,98,0.00,,,-99.99,0.000000,,2013-07-17 06:43:00,
2013-07-17 02:52:00,73.0,72.0,-100.00,NW,316,2.0,4.0,98,0.00,,,-99.99,0.000000,,2013-07-17 06:52:00,
2013-07-17 03:01:00,73.0,72.0,-100.00,NW,316,2.0,4.0,98,0.00,,,-99.99,0.000000,,2013-07-17 07:01:00,
2013-07-17 03:42:00,72.0,72.0,-100.00,East,87,1.0,3.0,99,0.00,,,-99.99,0.000000,,2013-07-17 07:42:00,
2013-07-17 03:52:00,72.0,72.0,-100.00,East,87,1.0,3.0,99,0.00,,,-99.99,0.000000,,2013-07-17 07:52:00,
2013-07-17 04:01:00,72.0,72.0,-100.00,East,87,1.0,3.0,99,0.00,,,-99.99,0.000000,,2013-07-17 08:01:00,
2013-07-17 04:43:00,72.0,72.0,-100.00,ENE,57,2.0,2.0,99,0.00,,,-99.99,0.000000,,2013-07-17 08:43:00,
2013-07-17 04:53:00,72.0,72.0,-100.00,ENE,57,2.0,2.0,99,0.00,,,-99.99,0.000000,,2013-07-17 08:53:00,
2013-07-17 05:02:00,72.0,72.0,-100.00,ENE,57,2.0,2.0,99,0.00,,,-99.99,0.000000,,2013-07-17 09:02:00,
2013-07-17 05:32:00,71.0,71.0,-100.00,NNE,33,2.0,4.0,99,0.00,,,-99.99,0.000000,,2013-07-17 09:32:00,
2013-07-17 05:43:00,71.0,71.0,-100.00,NNE,33,2.0,4.0,99,0.00,,,-99.99,0.000000,,2013-07-17 09:43:00,
2013-07-17 05:52:00,71.0,71.0,-100.00,NNE,33,2.0,4.0,99,0.00,,,-99.99,0.000000,,2013-07-17 09:52:00,
2013-07-17 06:01:00,71.0,71.0,-100.00,NNE,33,2.0,4.0,99,0.00,,,-99.99,0.000000,,2013-07-17 10:01:00,
2013-07-17 06:32:00,71.0,71.0,-100.00,ENE,67,2.0,5.0,99,0.00,,,-99.99,0.000000,,2013-07-17 10:32:00,
2013-07-17 06:43:00,71.0,71.0,-100.00,ENE,67,2.0,5.0,99,0.00,,,-99.99,0.000000,,2013-07-17 10:43:00,
2013-07-17 06:52:00,71.0,71.0,-100.00,ENE,67,2.0,5.0,99,0.00,,,-99.99,0.000000,,2013-07-17 10:52:00,
2013-07-17 07:02:00,71.0,71.0,-100.00,ENE,67,2.0,5.0,99,0.00,,,-99.99,0.000000,,2013-07-17 11:02:00,
2013-07-17 07:32:00,71.0,71.0,-100.00,NW,314,2.0,4.0,99,0.00,,,-99.99,6.000000,,2013-07-17 11:32:00,
2013-07-17 07:42:00,71.0,71.0,-100.00,NW,314,2.0,4.0,99,0.00,,,-99.99,6.000000,,2013-07-17 11:42:00,
2013-07-17 07:52:00,71.0,71.0,-100.00,NW,314,2.0,4.0,99,0.00,,,-99.99,6.000000,,2013-07-17 11:52:00,
2013-07-17 08:01:00,71.0,71.0,-100.00,NW,314,2.0,4.0,99,0.00,,,-99.99,6.000000,,2013-07-17 12:01:00,
2013-07-17 08:43:00,74.0,74.0,-100.00,North,1,2.0,4.0,99,0.00,,,-99.99,74.000000,,2013-07-17 12:43:00,
2013-07-17 08:53:00,74.0,74.0,-100.00,North,1,2.0,4.0,99,0.00,,,-99.99,74.000000,,2013-07-17 12:53:00,
2013-07-17 09:01:00,74.0,74.0,-100.00,North,1,2.0,4.0,99,0.00,,,-99.99,74.000000,,2013-07-17 13:01:00,
2013-07-17 09:43:00,77.0,76.0,-100.00,ENE,74,2.0,5.0,98,0.00,,,-99.99,105.000000,,2013-07-17 13:43:00,
2013-07-17 09:53:00,77.0,76.0,-100.00,ENE,74,2.0,5.0,98,0.00,,,-99.99,105.000000,,2013-07-17 13:53:00,
2013-07-17 10:02:00,77.0,76.0,-100.00,ENE,74,2.0,5.0,98,0.00,,,-99.99,105.000000,,2013-07-17 14:02:00,
2013-07-17 10:43:00,83.0,78.0,-100.00,NNE,25,3.0,7.0,85,-99.99,,,-99.99,304.000000,,2013-07-17 14:43:00,
2013-07-17 10:52:00,83.0,78.0,-100.00,NNE,25,3.0,7.0,85,-99.99,,,-99.99,304.000000,,2013-07-17 14:52:00,
2013-07-17 11:02:00,83.0,78.0,-100.00,NNE,25,3.0,7.0,85,-99.99,,,-99.99,304.000000,,2013-07-17 15:02:00,
2013-07-17 11:32:00,90.0,78.0,-100.00,ESE,123,3.0,6.0,69,0.00,,,-99.99,626.000000,,2013-07-17 15:32:00,
2013-07-17 11:43:00,90.0,78.0,-100.00,ESE,123,3.0,6.0,69,0.00,,,-99.99,626.000000,,2013-07-17 15:43:00,
2013-07-17 11:52:00,90.0,78.0,-100.00,ESE,123,3.0,6.0,69,0.00,,,-99.99,626.000000,,2013-07-17 15:52:00,
2013-07-17 12:02:00,90.0,78.0,-100.00,ESE,123,3.0,6.0,69,0.00,,,-99.99,626.000000,,2013-07-17 16:02:00,
2013-07-17 12:43:00,93.0,79.0,-100.00,WNW,302,2.0,7.0,63,0.00,,,-99.99,862.000000,,2013-07-17 16:43:00,
2013-07-17 12:52:00,93.0,79.0,-100.00,WNW,302,2.0,7.0,63,0.00,,,-99.99,862.000000,,2013-07-17 16:52:00,
2013-07-17 13:02:00,93.0,79.0,-100.00,WNW,302,2.0,7.0,63,0.00,,,-99.99,862.000000,,2013-07-17 17:02:00,
2013-07-17 13:32:00,94.0,79.0,-100.00,NE,38,3.0,7.0,63,0.00,,,0.00,823.000000,,2013-07-17 17:32:00,
2013-07-17 13:43:00,94.0,79.0,-100.00,NE,38,3.0,7.0,63,0.00,,,0.00,823.000000,,2013-07-17 17:43:00,
2013-07-17 13:52:00,94.0,79.0,-100.00,NE,38,3.0,7.0,63,0.00,,,0.00,823.000000,,2013-07-17 17:52:00,
2013-07-17 14:01:00,94.0,79.0,-100.00,NE,38,3.0,7.0,63,0.00,,,0.00,823.000000,,2013-07-17 18:01:00,
2013-07-17 14:43:00,91.0,76.0,-100.00,WNW,297,1.0,7.0,61,0.00,,,0.00,729.000000,,2013-07-17 18:43:00,
2013-07-17 14:52:00,91.0,76.0,-100.00,WNW,297,1.0,7.0,61,0.00,,,0.00,729.000000,,2013-07-17 18:52:00,
2013-07-17 15:01:00,91.0,76.0,-100.00,WNW,297,1.0,7.0,61,0.00,,,0.00,729.000000,,2013-07-17 19:01:00,
2013-07-17 15:53:00,81.0,74.0,-100.00,North,3,4.0,10.0,80,0.00,,,0.00,96.000000,,2013-07-17 19:53:00,
2013-07-17 16:02:00,81.0,74.0,-100.00,North,3,4.0,10.0,80,0.00,,,0.00,96.000000,,2013-07-17 20:02:00,
2013-07-17 16:43:00,82.0,78.0,-100.00,West,263,4.0,8.0,88,0.00,,,0.00,180.000000,,2013-07-17 20:43:00,
2013-07-17 16:53:00,82.0,78.0,-100.00,West,263,4.0,8.0,88,0.00,,,0.00,180.000000,,2013-07-17 20:53:00,
2013-07-17 17:02:00,82.0,78.0,-100.00,West,263,4.0,8.0,88,0.00,,,0.00,180.000000,,2013-07-17 21:02:00,
2013-07-17 17:42:00,78.0,70.0,-100.00,SE,135,3.0,18.0,76,0.00,,,0.00,70.000000,,2013-07-17 21:42:00,
2013-07-17 17:53:00,78.0,70.0,-100.00,SE,135,3.0,18.0,76,0.00,,,0.00,70.000000,,2013-07-17 21:53:00,
2013-07-17 18:01:00,78.0,70.0,-100.00,SE,135,3.0,18.0,76,0.00,,,0.00,70.000000,,2013-07-17 22:01:00,
2013-07-17 18:32:00,74.0,71.0,-100.00,SW,216,3.0,9.0,90,0.00,,,0.00,7.000000,,2013-07-17 22:32:00,
2013-07-17 18:43:00,74.0,71.0,-100.00,SW,216,3.0,9.0,90,0.00,,,0.00,7.000000,,2013-07-17 22:43:00,
2013-07-17 18:53:00,74.0,71.0,-100.00,SW,216,3.0,9.0,90,0.00,,,0.00,7.000000,,2013-07-17 22:53:00,
2013-07-17 19:02:00,74.0,71.0,-100.00,SW,216,3.0,9.0,90,0.00,,,0.00,7.000000,,2013-07-17 23:02:00,
2013-07-17 19:43:00,72.0,70.0,-100.00,WNW,289,4.0,10.0,95,0.01,,,0.01,5.000000,,2013-07-17 23:43:00,
2013-07-17 19:52:00,72.0,70.0,-100.00,WNW,289,4.0,10.0,95,0.01,,,0.01,5.000000,,2013-07-17 23:52:00,
2013-07-17 20:01:00,72.0,70.0,-100.00,WNW,289,4.0,10.0,95,0.01,,,0.01,5.000000,,2013-07-18 00:01:00,
2013-07-17 20:33:00,72.0,71.0,-100.00,South,177,3.0,5.0,97,0.05,,,0.06,6.000000,,2013-07-18 00:33:00,
2013-07-17 20:43:00,72.0,71.0,-100.00,South,177,3.0,5.0,97,0.05,,,0.06,6.000000,,2013-07-18 00:43:00,
2013-07-17 20:52:00,72.0,71.0,-100.00,South,177,3.0,5.0,97,0.05,,,0.06,6.000000,,2013-07-18 00:52:00,
2013-07-17 21:01:00,72.0,71.0,-100.00,South,177,3.0,5.0,97,0.05,,,0.06,6.000000,,2013-07-18 01:01:00,
2013-07-17 21:32:00,72.0,71.0,-100.00,NNW,341,3.0,8.0,98,0.01,,,0.07,1.000000,,2013-07-18 01:32:00,
2013-07-17 21:43:00,72.0,71.0,-100.00,NNW,341,3.0,8.0,98,0.01,,,0.07,1.000000,,2013-07-18 01:43:00,
2013-07-17 21:53:00,72.0,71.0,-100.00,NNW,341,3.0,8.0,98,0.01,,,0.07,1.000000,,2013-07-18 01:53:00,
2013-07-17 22:02:00,72.0,71.0,-100.00,NNW,341,3.0,8.0,98,0.01,,,0.07,1.000000,,2013-07-18 02:02:00,
2013-07-17 22:32:00,72.0,71.0,-100.00,SSW,197,3.0,6.0,98,0.01,,,0.08,0.000000,,2013-07-18 02:32:00,
2013-07-17 22:43:00,72.0,71.0,-100.00,SSW,197,3.0,6.0,98,0.01,,,0.08,0.000000,,2013-07-18 02:43:00,
2013-07-17 22:52:00,72.0,71.0,-100.00,SSW,197,3.0,6.0,98,0.01,,,0.08,0.000000,,2013-07-18 02:52:00,
2013-07-17 23:01:00,72.0,71.0,-100.00,SSW,197,3.0,6.0,98,0.01,,,0.08,0.000000,,2013-07-18 03:01:00,
2013-07-17 23:43:00,71.0,70.0,-100.00,NNE,14,0.0,6.0,98,0.00,,,0.08,0.000000,,2013-07-18 03:43:00,
2013-07-17 23:52:00,71.0,70.0,-100.00,NNE,14,0.0,6.0,98,0.00,,,0.08,0.000000,,2013-07-18 03:52:00,